Location: Asheville, NC
(35.6000°N, 82.5500°W)
Time: 14:37:47
(UTC-04:00)

RS-15 - Pass Details

Date: 06 January 2018
Orbit: 1889 x 2156 km, 64.8° (Epoch: 19 April)

Event Time Altitude Azimuth Distance (km) Brightness Sun altitude
Rises 19:10:35 0° 331° (NNW) 5,587 10.6 -19.5°
Reaches altitude 10° 19:14:23 10° 338° (NNW) 4,549 10.0 -20.3°
Maximum altitude 19:25:29 45° 49° (NE) 2,565 8.2 -22.5°
Enters shadow 19:30:11 32° 96° (E) 2,990 8.4 -23.4°
